Location: McFarlands Corners
(41.4117°N, 81.3382°W)
Time: 13:47:01
(UTC+00:00)

Tiros 1 despin weight - Pass Details

Date: 16 November 2024
Orbit: 570 x 610 km, 48.2° (Epoch: 01 December)

Event Time Altitude Azimuth Distance (km) Brightness Sun altitude
Exits shadow 11:04:35 19° 306° (NW) 1,443 ? -13.4°
Maximum altitude 11:07:06 33° 359° (N) 1,000 ? -12.9°
Drops below altitude 10° 11:11:06 10° 65° (ENE) 1,910 ? -12.2°
Sets 11:13:32 0° 75° (ENE) 2,803 ? -11.8°
